Location: Ajisawe
(8.4333°N, 4.3833°E)
Time: 23:39:48
(UTC+00:00)

S-56A Canister/Altair - Pass Details

Date: 24 April 2021
Orbit: 631 x 2501 km, 38.9° (Epoch: 15 May)

Event Time Altitude Azimuth Distance (km) Brightness Sun altitude
Rises 18:56:12 0° 236° (SW) 6,162 12.7 -16.2°
Reaches altitude 10° 19:00:26 10° 239° (WSW) 5,081 12.3 -17.2°
Maximum altitude 19:14:40 66° 318° (NW) 2,169 9.9 -20.6°
Drops below altitude 10° 19:24:51 10° 40° (NE) 3,732 10.8 -23.0°
Sets 19:27:30 0° 43° (NE) 4,487 11.2 -23.6°
